This demonstration page uses our WeatherBlox Daily Observations layout. Learn more.

Left ArrowRight Arrow

Hourly Observations for January 27, 2022

Temp ( °F °C ) Dew Point ( °F °C ) Humidity (%) Winds ( mph kmh ) Pressure ( in mb ) Visibility ( mi km ) Precip ( " mm )
12:53 am 00:53 Clear 20 -6.7 18 -7.8 92 92 SW 5 7 30.16 1021 9 14 0.00 0.00
1:53 am 01:53 Clear 20 -6.7 17 -8.3 89 89 W 6 9 30.16 1021 9 14 0.00 0.00
2:53 am 02:53 Clear 19 -7.2 15 -9.4 84 84 NW 8 13 30.19 1022 10 16 0.00 0.00
3:53 am 03:53 Clear 19 -7.2 15 -9.4 84 84 WNW 9 15 30.21 1023 10 16 0.00 0.00
4:53 am 04:53 Clear 20 -6.7 16 -8.9 85 85 W 8 13 30.22 1024 10 16 0.00 0.00
5:53 am 05:53 Clear 20 -6.7 17 -8.3 89 89 W 8 13 30.24 1024 10 16 0.00 0.00
6:53 am 06:53 Clear 21 -6.1 17 -8.3 85 85 WNW 7 11 30.27 1025 10 16 0.00 0.00
7:53 am 07:53 Sunny 22 -5.6 19 -7.2 89 89 NW 8 13 30.29 1026 10 16 0.00 0.00
8:53 am 08:53 Sunny 25 -3.9 21 -6.1 85 85 NW 9 15 30.33 1027 10 16 0.00 0.00
9:53 am 09:53 Sunny 32 0 25 -3.9 75 75 NNW 13 20 30.35 1028 10 16 0.00 0.00
10:53 am 10:53 Sunny 35 1.7 25 -3.9 67 67 N 13 20 30.37 1029 10 16 0.00 0.00
11:53 am 11:53 Sunny 40 4.4 26 -3.3 58 58 NNW 14 22 30.36 1028 10 16 0.00 0.00
12:53 pm 12:53 Mostly Sunny 41 5 25 -3.9 53 53 NNW 16 26 30.35 1028 10 16 0.00 0.00
1:53 pm 13:53 Mostly Cloudy 42 5.6 21 -6.1 43 43 NNW 21 33 30.35 1028 10 16 0.00 0.00
2:53 pm 14:53 Cloudy 41 5 20 -6.7 43 43 NNW 17 28 30.36 1028 10 16 0.00 0.00
3:53 pm 15:53 Cloudy 41 5 22 -5.6 47 47 NW 18 30 30.37 1029 10 16 0.00 0.00
4:53 pm 16:53 Cloudy 39 3.9 24 -4.4 55 55 NNW 20 31 30.39 1029 10 16 0.00 0.00
5:53 pm 17:53 Mostly Clear 32 0 24 -4.4 73 73 NNW 10 17 30.43 1031 10 16 0.00 0.00
6:53 pm 18:53 Partly Cloudy 30 -1.1 25 -3.9 82 82 N 7 11 30.46 1032 10 16 0.00 0.00
7:53 pm 19:53 Clear 24 -4.4 21 -6.1 88 88 NW 3 6 30.48 1032 10 16 0.00 0.00
8:53 pm 20:53 Partly Cloudy 28 -2.2 24 -4.4 85 85 N 12 19 30.48 1032 10 16 0.00 0.00
9:00 pm 21:00 Mostly Cloudy 27 -2.8 23 -5 85 85 N 12 19 30.53 1034 10 16 0.00 0.00
9:11 pm 21:11 Cloudy 27 -2.8 23 -5 85 85 NNE 12 19 30.54 1034 10 16 0.00 0.00
9:53 pm 21:53 Mostly Cloudy 24 -4.4 19 -7.2 81 81 NNE 12 19 30.49 1032 10 16 0.00 0.00
10:53 pm 22:53 Cloudy 23 -5 16 -8.9 74 74 NNE 10 17 30.50 1033 10 16 0.00 0.00
11:53 pm 23:53 Cloudy 22 -5.6 16 -8.9 78 78 NNE 6 9 30.50 1033 10 16 0.00 0.00

Powered by AerisWeather